Time,TemperatureF,DewpointF,PressureIn,WindDirection,WindDirectionDegrees,WindSpeedMPH,WindSpeedGustMPH,Humidity,HourlyPrecipIn,Conditions,Clouds,dailyrainin,SoftwareType,DateUTC
2013-02-17 00:00:00,15.1,7.4,30.09,North,0,0.0,0.0,71,0.00,,OVC,0.00,WeatherDisplay:10.37,2013-02-17 06:00:00,
2013-02-17 00:05:00,15.1,7.1,30.09,North,0,0.0,0.0,70,0.00,,OVC,0.00,WeatherDisplay:10.37,2013-02-17 06:05:00,
2013-02-17 00:10:00,14.9,6.9,30.09,North,0,0.0,0.0,70,0.00,,OVC,0.00,WeatherDisplay:10.37,2013-02-17 06:10:00,
2013-02-17 00:15:00,14.9,6.6,30.09,North,0,0.0,0.0,69,0.00,,OVC,0.00,WeatherDisplay:10.37,2013-02-17 06:15:00,
2013-02-17 00:20:00,14.7,6.7,30.09,North,0,0.0,0.0,70,0.00,,OVC,0.00,WeatherDisplay:10.37,2013-02-17 06:20:00,
2013-02-17 00:25:00,14.7,6.4,30.09,North,0,0.0,0.0,69,0.00,,OVC,0.00,WeatherDisplay:10.37,2013-02-17 06:25:00,
2013-02-17 00:30:00,14.7,6.4,30.09,North,0,0.0,0.0,69,0.00,,OVC,0.00,WeatherDisplay:10.37,2013-02-17 06:30:00,
2013-02-17 00:35:00,14.7,6.7,30.09,North,0,0.0,0.0,70,0.00,,OVC,0.00,WeatherDisplay:10.37,2013-02-17 06:35:00,
2013-02-17 00:40:00,14.5,6.5,30.09,North,0,0.0,0.0,70,0.00,,OVC,0.00,WeatherDisplay:10.37,2013-02-17 06:40:00,
2013-02-17 00:45:00,14.5,6.5,30.09,North,0,0.0,0.0,70,0.00,,OVC,0.00,WeatherDisplay:10.37,2013-02-17 06:45:00,
2013-02-17 00:50:00,14.7,6.4,30.09,North,0,0.0,0.0,69,0.00,,OVC,0.00,WeatherDisplay:10.37,2013-02-17 06:50:00,
2013-02-17 00:55:00,14.7,6.1,30.09,North,0,0.0,0.0,68,0.00,,OVC,0.00,WeatherDisplay:10.37,2013-02-17 06:55:00,
2013-02-17 01:00:00,15.1,6.4,30.09,North,0,0.0,0.0,68,0.00,,OVC,0.00,WeatherDisplay:10.37,2013-02-17 07:00:00,
2013-02-17 01:05:00,15.4,6.4,30.09,North,0,0.0,0.0,67,0.00,,OVC,0.00,WeatherDisplay:10.37,2013-02-17 07:05:00,
2013-02-17 01:10:00,15.6,6.6,30.09,North,0,0.0,0.0,67,0.00,,OVC,0.00,WeatherDisplay:10.37,2013-02-17 07:10:00,
2013-02-17 01:15:00,15.8,7.4,30.09,North,0,0.0,0.0,69,0.00,,OVC,0.00,WeatherDisplay:10.37,2013-02-17 07:15:00,
2013-02-17 01:20:00,16.0,7.6,30.09,North,0,0.0,0.0,69,0.00,,OVC,0.00,WeatherDisplay:10.37,2013-02-17 07:20:00,
2013-02-17 01:25:00,16.2,7.8,30.09,North,0,0.0,0.0,69,0.00,,OVC,0.00,WeatherDisplay:10.37,2013-02-17 07:25:00,
2013-02-17 01:30:00,16.2,7.8,30.09,North,0,0.0,0.0,69,0.00,,OVC,0.00,WeatherDisplay:10.37,2013-02-17 07:30:00,
2013-02-17 01:35:00,16.3,7.3,30.08,North,0,0.0,0.0,67,0.00,,OVC,0.00,WeatherDisplay:10.37,2013-02-17 07:35:00,
2013-02-17 01:40:00,16.3,7.9,30.08,North,0,0.0,0.0,69,0.00,,OVC,0.00,WeatherDisplay:10.37,2013-02-17 07:40:00,
2013-02-17 01:45:00,16.3,7.9,30.08,North,0,0.0,0.0,69,0.00,,OVC,0.00,WeatherDisplay:10.37,2013-02-17 07:45:00,
2013-02-17 01:50:00,16.3,7.9,30.08,North,0,0.0,0.0,69,0.00,,OVC,0.00,WeatherDisplay:10.37,2013-02-17 07:50:00,
2013-02-17 01:55:00,16.3,7.9,30.08,North,0,0.0,0.0,69,0.00,,OVC,0.00,WeatherDisplay:10.37,2013-02-17 07:55:00,
2013-02-17 02:00:00,16.3,7.9,30.08,North,0,0.0,0.0,69,0.00,,OVC,0.00,WeatherDisplay:10.37,2013-02-17 08:00:00,
2013-02-17 02:05:00,16.5,8.1,30.08,North,0,0.0,0.0,69,0.00,,OVC,0.00,WeatherDisplay:10.37,2013-02-17 08:05:00,
2013-02-17 02:10:00,16.5,8.1,30.09,North,0,0.0,0.0,69,0.00,,OVC,0.00,WeatherDisplay:10.37,2013-02-17 08:10:00,
2013-02-17 02:15:00,16.5,8.1,30.09,North,0,0.0,0.0,69,0.00,,OVC,0.00,WeatherDisplay:10.37,2013-02-17 08:15:00,
2013-02-17 02:20:00,16.5,8.1,30.09,North,0,0.0,0.0,69,0.00,,OVC,0.00,WeatherDisplay:10.37,2013-02-17 08:20:00,
2013-02-17 02:25:00,16.7,8.6,30.09,North,0,0.0,0.0,70,0.00,,OVC,0.00,WeatherDisplay:10.37,2013-02-17 08:25:00,
2013-02-17 02:31:00,16.7,8.6,30.09,North,0,0.0,0.0,70,0.00,,OVC,0.00,WeatherDisplay:10.37,2013-02-17 08:31:00,
2013-02-17 02:36:00,16.7,8.9,30.09,North,0,0.0,0.0,71,0.00,,OVC,0.00,WeatherDisplay:10.37,2013-02-17 08:36:00,
2013-02-17 02:41:00,16.7,8.3,30.09,North,0,0.0,0.0,69,0.00,,OVC,0.00,WeatherDisplay:10.37,2013-02-17 08:41:00,
2013-02-17 02:46:00,16.7,8.3,30.08,North,0,0.0,0.0,69,0.00,,OVC,0.00,WeatherDisplay:10.37,2013-02-17 08:46:00,
2013-02-17 02:51:00,16.9,8.1,30.09,North,0,0.0,0.0,68,0.00,,OVC,0.00,WeatherDisplay:10.37,2013-02-17 08:51:00,
2013-02-17 02:56:00,16.9,7.8,30.09,North,0,0.0,0.0,67,0.00,,OVC,0.00,WeatherDisplay:10.37,2013-02-17 08:56:00,
2013-02-17 03:01:00,16.9,7.8,30.09,North,0,0.0,0.0,67,0.00,,OVC,0.00,WeatherDisplay:10.37,2013-02-17 09:01:00,
2013-02-17 03:06:00,17.1,7.6,30.09,North,0,0.0,0.0,66,0.00,,OVC,0.00,WeatherDisplay:10.37,2013-02-17 09:06:00,
2013-02-17 03:11:00,17.1,8.3,30.08,North,0,0.0,0.0,68,0.00,,OVC,0.00,WeatherDisplay:10.37,2013-02-17 09:11:00,
2013-02-17 03:16:00,17.2,8.5,30.08,North,0,0.0,0.0,68,0.00,,OVC,0.00,WeatherDisplay:10.37,2013-02-17 09:16:00,
2013-02-17 03:21:00,17.2,8.2,30.08,North,0,0.0,0.0,67,0.00,,OVC,0.00,WeatherDisplay:10.37,2013-02-17 09:21:00,
2013-02-17 03:26:00,17.2,8.5,30.08,North,0,0.0,0.0,68,0.00,,OVC,0.00,WeatherDisplay:10.37,2013-02-17 09:26:00,
2013-02-17 03:31:00,17.2,8.5,30.08,North,0,0.0,0.0,68,0.00,,OVC,0.00,WeatherDisplay:10.37,2013-02-17 09:31:00,
2013-02-17 03:36:00,17.2,8.8,30.08,North,0,0.0,0.0,69,0.00,,OVC,0.00,WeatherDisplay:10.37,2013-02-17 09:36:00,
2013-02-17 03:41:00,17.2,8.8,30.08,North,0,0.0,0.0,69,0.00,,OVC,0.00,WeatherDisplay:10.37,2013-02-17 09:41:00,
2013-02-17 03:46:00,17.2,8.8,30.08,North,0,0.0,0.0,69,0.00,,OVC,0.00,WeatherDisplay:10.37,2013-02-17 09:46:00,
2013-02-17 03:51:00,17.4,9.3,30.08,North,0,0.0,0.0,70,0.00,,OVC,0.00,WeatherDisplay:10.37,2013-02-17 09:51:00,
2013-02-17 03:56:00,17.4,9.0,30.08,North,0,0.0,0.0,69,0.00,,OVC,0.00,WeatherDisplay:10.37,2013-02-17 09:56:00,
2013-02-17 04:01:00,17.4,9.0,30.08,North,0,0.0,0.0,69,0.00,,OVC,0.00,WeatherDisplay:10.37,2013-02-17 10:01:00,
2013-02-17 04:06:00,17.4,9.3,30.08,North,0,0.0,0.0,70,0.00,,OVC,0.00,WeatherDisplay:10.37,2013-02-17 10:06:00,
2013-02-17 04:11:00,17.4,9.0,30.08,North,0,0.0,0.0,69,0.00,,OVC,0.00,WeatherDisplay:10.37,2013-02-17 10:11:00,
2013-02-17 04:16:00,17.6,9.5,30.08,North,0,0.0,0.0,70,0.00,,OVC,0.00,WeatherDisplay:10.37,2013-02-17 10:16:00,
2013-02-17 04:21:00,17.4,9.3,30.08,North,0,0.0,0.0,70,0.00,,OVC,0.00,WeatherDisplay:10.37,2013-02-17 10:21:00,
2013-02-17 04:26:00,17.6,9.5,30.08,North,0,0.0,0.0,70,0.00,,OVC,0.00,WeatherDisplay:10.37,2013-02-17 10:26:00,
2013-02-17 04:31:00,17.4,9.3,30.07,North,0,0.0,0.0,70,0.00,,OVC,0.00,WeatherDisplay:10.37,2013-02-17 10:31:00,
2013-02-17 04:36:00,17.4,9.3,30.08,North,0,0.0,0.0,70,0.00,,OVC,0.00,WeatherDisplay:10.37,2013-02-17 10:36:00,
2013-02-17 04:41:00,17.4,9.3,30.07,North,0,0.0,0.0,70,0.00,,OVC,0.00,WeatherDisplay:10.37,2013-02-17 10:41:00,
2013-02-17 04:46:00,17.2,9.1,30.08,North,0,0.0,0.0,70,0.00,,OVC,0.00,WeatherDisplay:10.37,2013-02-17 10:46:00,
2013-02-17 04:51:00,17.2,9.1,30.08,North,0,0.0,0.0,70,0.00,,OVC,0.00,WeatherDisplay:10.37,2013-02-17 10:51:00,
2013-02-17 04:56:00,17.2,9.1,30.08,North,0,0.0,0.0,70,0.00,,OVC,0.00,WeatherDisplay:10.37,2013-02-17 10:56:00,
2013-02-17 05:01:00,17.2,8.8,30.08,North,0,0.0,0.0,69,0.00,,OVC,0.00,WeatherDisplay:10.37,2013-02-17 11:01:00,
2013-02-17 05:06:00,17.2,8.8,30.08,North,0,0.0,0.0,69,0.00,,OVC,0.00,WeatherDisplay:10.37,2013-02-17 11:06:00,
2013-02-17 05:11:00,17.2,8.8,30.07,North,0,0.0,0.0,69,0.00,,OVC,0.00,WeatherDisplay:10.37,2013-02-17 11:11:00,
2013-02-17 05:16:00,17.1,9.0,30.07,North,0,0.0,0.0,70,0.00,,OVC,0.00,WeatherDisplay:10.37,2013-02-17 11:16:00,
2013-02-17 05:21:00,16.9,9.1,30.07,North,0,0.0,0.0,71,0.00,,OVC,0.00,WeatherDisplay:10.37,2013-02-17 11:21:00,
2013-02-17 05:26:00,16.9,8.8,30.07,North,0,0.0,0.0,70,0.00,,OVC,0.00,WeatherDisplay:10.37,2013-02-17 11:26:00,
2013-02-17 05:31:00,16.7,8.9,30.07,North,0,0.0,0.0,71,0.00,,OVC,0.00,WeatherDisplay:10.37,2013-02-17 11:31:00,
2013-02-17 05:36:00,16.7,8.9,30.07,North,0,0.0,0.0,71,0.00,,OVC,0.00,WeatherDisplay:10.37,2013-02-17 11:36:00,
2013-02-17 05:41:00,16.5,8.8,30.07,North,0,0.0,0.0,71,0.00,,OVC,0.00,WeatherDisplay:10.37,2013-02-17 11:41:00,
2013-02-17 05:46:00,16.3,8.6,30.07,North,0,0.0,0.0,71,0.00,,OVC,0.00,WeatherDisplay:10.37,2013-02-17 11:46:00,
2013-02-17 05:51:00,16.3,8.6,30.07,North,0,0.0,0.0,71,0.00,,OVC,0.00,WeatherDisplay:10.37,2013-02-17 11:51:00,
2013-02-17 05:56:00,16.2,8.4,30.07,North,0,0.0,0.0,71,0.00,,OVC,0.00,WeatherDisplay:10.37,2013-02-17 11:56:00,
2013-02-17 06:01:00,16.2,8.4,30.07,North,0,0.0,0.0,71,0.00,,OVC,0.00,WeatherDisplay:10.37,2013-02-17 12:01:00,
2013-02-17 06:06:00,16.0,8.2,30.07,North,0,0.0,0.0,71,0.00,,OVC,0.00,WeatherDisplay:10.37,2013-02-17 12:06:00,
2013-02-17 06:11:00,15.8,8.1,30.07,North,0,0.0,0.0,71,0.00,,OVC,0.00,WeatherDisplay:10.37,2013-02-17 12:11:00,
2013-02-17 06:16:00,15.8,8.1,30.06,North,0,0.0,0.0,71,0.00,,OVC,0.00,WeatherDisplay:10.37,2013-02-17 12:16:00,
2013-02-17 06:21:00,15.6,7.9,30.06,North,0,0.0,0.0,71,0.00,,OVC,0.00,WeatherDisplay:10.37,2013-02-17 12:21:00,
2013-02-17 06:26:00,15.6,7.9,30.06,North,0,0.0,0.0,71,0.00,,OVC,0.00,WeatherDisplay:10.37,2013-02-17 12:26:00,
2013-02-17 06:31:00,15.4,7.4,30.06,North,0,0.0,0.0,70,0.00,,OVC,0.00,WeatherDisplay:10.37,2013-02-17 12:31:00,
2013-02-17 06:36:00,15.4,7.4,30.06,North,0,0.0,0.0,70,0.00,,OVC,0.00,WeatherDisplay:10.37,2013-02-17 12:36:00,
2013-02-17 06:41:00,15.4,7.1,30.06,North,0,0.0,0.0,69,0.00,,OVC,0.00,WeatherDisplay:10.37,2013-02-17 12:41:00,
2013-02-17 06:46:00,15.4,7.1,30.06,North,0,0.0,0.0,69,0.00,,OVC,0.00,WeatherDisplay:10.37,2013-02-17 12:46:00,
2013-02-17 06:51:00,15.3,6.6,30.06,North,0,0.0,0.0,68,0.00,,OVC,0.00,WeatherDisplay:10.37,2013-02-17 12:51:00,
2013-02-17 06:56:00,15.3,6.6,30.06,North,0,0.0,0.0,68,0.00,,OVC,0.00,WeatherDisplay:10.37,2013-02-17 12:56:00,
2013-02-17 07:01:00,15.3,6.3,30.06,North,0,0.0,0.0,67,0.00,,OVC,0.00,WeatherDisplay:10.37,2013-02-17 13:01:00,
2013-02-17 07:06:00,15.3,6.6,30.05,North,0,0.0,0.0,68,0.00,,OVC,0.00,WeatherDisplay:10.37,2013-02-17 13:06:00,
2013-02-17 07:11:00,15.3,6.3,30.05,North,0,0.0,0.0,67,0.00,,OVC,0.00,WeatherDisplay:10.37,2013-02-17 13:11:00,
2013-02-17 07:16:00,15.3,6.3,30.05,North,0,0.0,0.0,67,0.00,,OVC,0.00,WeatherDisplay:10.37,2013-02-17 13:16:00,
2013-02-17 07:22:00,15.3,5.9,30.05,North,0,0.0,0.0,66,0.00,,OVC,0.00,WeatherDisplay:10.37,2013-02-17 13:22:00,
2013-02-17 07:27:00,15.4,5.8,30.05,North,0,0.0,0.0,65,0.00,,OVC,0.00,WeatherDisplay:10.37,2013-02-17 13:27:00,
2013-02-17 07:32:00,15.4,5.8,30.05,North,0,0.0,0.0,65,0.00,,OVC,0.00,WeatherDisplay:10.37,2013-02-17 13:32:00,
2013-02-17 07:37:00,15.6,5.9,30.05,North,0,0.0,0.0,65,0.00,,OVC,0.00,WeatherDisplay:10.37,2013-02-17 13:37:00,
2013-02-17 07:42:00,15.8,6.1,30.04,North,0,0.0,0.0,65,0.00,,OVC,0.00,WeatherDisplay:10.37,2013-02-17 13:42:00,
2013-02-17 07:47:00,16.0,5.9,30.04,North,0,0.0,0.0,64,0.00,,OVC,0.00,WeatherDisplay:10.37,2013-02-17 13:47:00,
2013-02-17 07:52:00,16.2,6.5,30.04,North,0,0.0,0.0,65,0.00,,OVC,0.00,WeatherDisplay:10.37,2013-02-17 13:52:00,
2013-02-17 07:57:00,16.7,6.6,30.04,North,0,0.0,0.0,64,0.00,,OVC,0.00,WeatherDisplay:10.37,2013-02-17 13:57:00,
2013-02-17 08:02:00,17.1,7.0,30.04,North,0,0.0,0.0,64,0.00,,OVC,0.00,WeatherDisplay:10.37,2013-02-17 14:02:00,
2013-02-17 08:07:00,17.4,7.7,30.04,North,0,0.0,0.0,65,0.00,,OVC,0.00,WeatherDisplay:10.37,2013-02-17 14:07:00,
2013-02-17 08:12:00,17.6,8.5,30.04,North,0,0.0,0.0,67,0.00,,OVC,0.00,WeatherDisplay:10.37,2013-02-17 14:12:00,
2013-02-17 08:17:00,17.4,8.7,30.04,North,0,0.0,0.0,68,0.00,,OVC,0.00,WeatherDisplay:10.37,2013-02-17 14:17:00,
2013-02-17 08:22:00,17.4,8.7,30.04,North,0,0.0,0.0,68,0.00,,OVC,0.00,WeatherDisplay:10.37,2013-02-17 14:22:00,
2013-02-17 08:27:00,17.4,8.7,30.03,North,0,0.0,0.0,68,0.00,,OVC,0.00,WeatherDisplay:10.37,2013-02-17 14:27:00,
2013-02-17 08:32:00,17.6,8.5,30.03,North,0,0.0,0.0,67,0.00,,OVC,0.00,WeatherDisplay:10.37,2013-02-17 14:32:00,
2013-02-17 08:37:00,17.6,9.2,30.03,North,0,0.0,0.0,69,0.00,,OVC,0.00,WeatherDisplay:10.37,2013-02-17 14:37:00,
2013-02-17 08:42:00,18.0,9.2,30.03,North,0,0.0,0.0,68,0.00,,OVC,0.00,WeatherDisplay:10.37,2013-02-17 14:42:00,
2013-02-17 08:47:00,18.3,9.2,30.03,North,0,0.0,0.0,67,0.00,,OVC,0.00,WeatherDisplay:10.37,2013-02-17 14:47:00,
2013-02-17 08:52:00,18.5,10.0,30.03,North,0,0.0,0.0,69,0.00,,OVC,0.00,WeatherDisplay:10.37,2013-02-17 14:52:00,
2013-02-17 08:57:00,18.9,10.0,30.03,North,0,0.0,0.0,68,0.00,,OVC,0.00,WeatherDisplay:10.37,2013-02-17 14:57:00,
2013-02-17 09:02:00,18.9,10.4,30.03,North,0,0.0,0.0,69,0.00,,OVC,0.00,WeatherDisplay:10.37,2013-02-17 15:02:00,
2013-02-17 09:07:00,19.0,10.5,30.03,North,0,0.0,0.0,69,0.00,,OVC,0.00,WeatherDisplay:10.37,2013-02-17 15:07:00,
2013-02-17 09:12:00,19.4,10.9,30.03,North,0,0.0,0.0,69,0.00,,OVC,0.00,WeatherDisplay:10.37,2013-02-17 15:12:00,
2013-02-17 09:17:00,19.6,11.1,30.03,North,0,0.0,0.0,69,0.00,,OVC,0.00,WeatherDisplay:10.37,2013-02-17 15:17:00,
2013-02-17 09:22:00,19.8,11.2,30.03,North,0,0.0,0.0,69,0.00,,OVC,0.00,WeatherDisplay:10.37,2013-02-17 15:22:00,
2013-02-17 09:27:00,20.1,11.6,30.03,North,0,0.0,0.0,69,0.00,,OVC,0.00,WeatherDisplay:10.37,2013-02-17 15:27:00,
2013-02-17 09:32:00,20.7,11.8,30.03,North,0,0.0,0.0,68,0.00,,OVC,0.00,WeatherDisplay:10.37,2013-02-17 15:32:00,
2013-02-17 09:37:00,20.8,12.3,30.04,North,0,0.0,0.0,69,0.00,,OVC,0.00,WeatherDisplay:10.37,2013-02-17 15:37:00,
2013-02-17 09:42:00,21.2,12.6,30.04,North,0,0.0,0.0,69,0.00,,OVC,0.00,WeatherDisplay:10.37,2013-02-17 15:42:00,
2013-02-17 09:47:00,21.6,13.0,30.04,North,0,0.0,0.0,69,0.00,,OVC,0.00,WeatherDisplay:10.37,2013-02-17 15:47:00,
2013-02-17 09:52:00,21.7,14.4,30.04,North,0,0.0,0.0,73,0.00,,OVC,0.00,WeatherDisplay:10.37,2013-02-17 15:52:00,
2013-02-17 09:57:00,21.7,14.1,30.04,North,0,0.0,0.0,72,0.00,,OVC,0.00,WeatherDisplay:10.37,2013-02-17 15:57:00,
2013-02-17 10:02:00,21.7,13.5,30.04,North,0,0.0,0.0,70,0.00,,OVC,0.00,WeatherDisplay:10.37,2013-02-17 16:02:00,
2013-02-17 10:07:00,21.9,14.0,30.03,North,0,0.0,0.0,71,0.00,,OVC,0.00,WeatherDisplay:10.37,2013-02-17 16:07:00,
2013-02-17 10:12:00,22.5,14.5,30.03,North,0,0.0,0.0,71,0.00,,OVC,0.00,WeatherDisplay:10.37,2013-02-17 16:12:00,
2013-02-17 10:17:00,22.8,15.1,30.03,North,0,0.0,0.0,72,0.00,,OVC,0.00,WeatherDisplay:10.37,2013-02-17 16:17:00,
2013-02-17 10:22:00,23.2,15.2,30.03,North,0,0.0,0.0,71,0.00,,OVC,0.00,WeatherDisplay:10.37,2013-02-17 16:22:00,
2013-02-17 10:27:00,23.5,15.5,30.03,North,0,0.0,0.0,71,0.00,,OVC,0.00,WeatherDisplay:10.37,2013-02-17 16:27:00,
2013-02-17 10:32:00,23.4,15.7,30.03,North,0,0.0,0.0,72,0.00,,OVC,0.00,WeatherDisplay:10.37,2013-02-17 16:32:00,
2013-02-17 10:37:00,23.2,15.5,30.03,North,0,0.0,0.0,72,0.00,,OVC,0.00,WeatherDisplay:10.37,2013-02-17 16:37:00,
2013-02-17 10:42:00,23.7,15.7,30.03,North,0,0.0,0.0,71,0.00,,OVC,0.00,WeatherDisplay:10.37,2013-02-17 16:42:00,
2013-02-17 10:47:00,23.9,15.9,30.03,North,0,0.0,0.0,71,0.00,,OVC,0.00,WeatherDisplay:10.37,2013-02-17 16:47:00,
2013-02-17 10:52:00,24.4,16.4,30.02,North,0,0.0,0.0,71,0.00,,OVC,0.00,WeatherDisplay:10.37,2013-02-17 16:52:00,
2013-02-17 10:57:00,24.8,17.1,30.02,North,0,0.0,0.0,72,0.00,,OVC,0.00,WeatherDisplay:10.37,2013-02-17 16:57:00,
2013-02-17 11:02:00,24.8,17.1,30.02,North,0,0.0,0.0,72,0.00,,OVC,0.00,WeatherDisplay:10.37,2013-02-17 17:02:00,
2013-02-17 11:07:00,25.2,17.4,30.02,North,0,0.0,0.0,72,0.00,,OVC,0.00,WeatherDisplay:10.37,2013-02-17 17:07:00,
2013-02-17 11:12:00,25.5,17.7,30.02,North,0,0.0,0.0,72,0.00,,OVC,0.00,WeatherDisplay:10.37,2013-02-17 17:12:00,
2013-02-17 11:17:00,25.5,17.7,30.02,North,0,0.0,0.0,72,0.00,,OVC,0.00,WeatherDisplay:10.37,2013-02-17 17:17:00,
2013-02-17 11:22:00,25.5,17.7,30.02,North,0,0.0,0.0,72,0.00,,OVC,0.00,WeatherDisplay:10.37,2013-02-17 17:22:00,
2013-02-17 11:27:00,25.9,18.1,30.01,North,0,0.0,0.0,72,0.00,,OVC,0.00,WeatherDisplay:10.37,2013-02-17 17:27:00,
2013-02-17 11:32:00,26.2,18.4,30.01,North,0,0.0,0.0,72,0.00,,OVC,0.00,WeatherDisplay:10.37,2013-02-17 17:32:00,
2013-02-17 11:37:00,26.2,18.4,30.01,North,0,0.0,0.0,72,0.00,,OVC,0.00,WeatherDisplay:10.37,2013-02-17 17:37:00,
2013-02-17 11:42:00,26.4,18.6,30.00,North,0,0.0,0.0,72,0.00,,OVC,0.00,WeatherDisplay:10.37,2013-02-17 17:42:00,
2013-02-17 11:47:00,27.0,19.1,30.00,North,0,0.0,0.0,72,0.00,,OVC,0.00,WeatherDisplay:10.37,2013-02-17 17:47:00,
2013-02-17 11:52:00,27.0,19.1,30.00,North,0,0.0,0.0,72,0.00,,OVC,0.00,WeatherDisplay:10.37,2013-02-17 17:52:00,
2013-02-17 11:57:00,27.5,19.7,30.00,North,0,0.0,0.0,72,0.00,,OVC,0.00,WeatherDisplay:10.37,2013-02-17 17:57:00,
2013-02-17 12:02:00,27.5,20.0,30.00,North,0,0.0,0.0,73,0.00,,OVC,0.00,WeatherDisplay:10.37,2013-02-17 18:02:00,
2013-02-17 12:07:00,27.7,19.8,29.99,North,0,0.0,0.0,72,0.00,,OVC,0.00,WeatherDisplay:10.37,2013-02-17 18:07:00,
2013-02-17 12:13:00,28.0,20.5,29.99,North,0,0.0,0.0,73,0.00,,OVC,0.00,WeatherDisplay:10.37,2013-02-17 18:13:00,
2013-02-17 12:18:00,28.2,20.3,29.99,North,0,0.0,0.0,72,0.00,,OVC,0.00,WeatherDisplay:10.37,2013-02-17 18:18:00,
2013-02-17 12:23:00,28.6,20.7,29.98,North,0,0.0,0.0,72,0.00,,OVC,0.00,WeatherDisplay:10.37,2013-02-17 18:23:00,
2013-02-17 12:28:00,28.4,20.5,29.98,North,0,0.0,0.0,72,0.00,,OVC,0.00,WeatherDisplay:10.37,2013-02-17 18:28:00,
2013-02-17 12:33:00,28.4,20.5,29.97,North,0,0.0,0.0,72,0.00,,OVC,0.00,WeatherDisplay:10.37,2013-02-17 18:33:00,
2013-02-17 12:38:00,28.4,20.2,29.97,North,0,0.0,0.0,71,0.00,,OVC,0.00,WeatherDisplay:10.37,2013-02-17 18:38:00,
2013-02-17 12:43:00,29.1,20.9,29.96,North,0,0.0,0.0,71,0.00,,OVC,0.00,WeatherDisplay:10.37,2013-02-17 18:43:00,
2013-02-17 12:48:00,29.1,21.2,29.96,North,0,0.0,0.0,72,0.00,,OVC,0.00,WeatherDisplay:10.37,2013-02-17 18:48:00,
2013-02-17 12:53:00,29.1,21.5,29.96,North,0,0.0,0.0,73,0.00,,OVC,0.00,WeatherDisplay:10.37,2013-02-17 18:53:00,
2013-02-17 12:58:00,29.1,20.9,29.96,North,0,0.0,0.0,71,0.00,,OVC,0.00,WeatherDisplay:10.37,2013-02-17 18:58:00,
2013-02-17 13:03:00,29.5,21.2,29.95,North,0,0.0,0.0,71,0.00,,OVC,0.00,WeatherDisplay:10.37,2013-02-17 19:03:00,
2013-02-17 13:08:00,29.5,21.2,29.95,North,0,0.0,0.0,71,0.00,,OVC,0.00,WeatherDisplay:10.37,2013-02-17 19:08:00,
2013-02-17 13:13:00,29.3,21.4,29.94,North,0,0.0,0.0,72,0.00,,OVC,0.00,WeatherDisplay:10.37,2013-02-17 19:13:00,
2013-02-17 13:18:00,29.8,21.6,29.95,North,0,0.0,0.0,71,0.00,,OVC,0.00,WeatherDisplay:10.37,2013-02-17 19:18:00,
2013-02-17 13:23:00,29.8,21.6,29.95,North,0,0.0,0.0,71,0.00,,OVC,0.00,WeatherDisplay:10.37,2013-02-17 19:23:00,
2013-02-17 13:28:00,30.0,21.4,29.94,North,0,0.0,0.0,70,0.00,,OVC,0.00,WeatherDisplay:10.37,2013-02-17 19:28:00,
2013-02-17 13:33:00,30.2,22.3,29.94,North,0,0.0,0.0,72,0.00,,OVC,0.00,WeatherDisplay:10.37,2013-02-17 19:33:00,
2013-02-17 13:38:00,30.2,21.6,29.93,North,0,0.0,0.0,70,0.00,,OVC,0.00,WeatherDisplay:10.37,2013-02-17 19:38:00,
2013-02-17 13:43:00,30.4,21.8,29.93,North,0,0.0,0.0,70,0.00,,OVC,0.00,WeatherDisplay:10.37,2013-02-17 19:43:00,
2013-02-17 13:48:00,30.6,22.3,29.93,North,0,0.0,0.0,71,0.00,,OVC,0.00,WeatherDisplay:10.37,2013-02-17 19:48:00,
2013-02-17 13:53:00,30.7,22.1,29.93,North,0,0.0,0.0,70,0.00,,OVC,0.00,WeatherDisplay:10.37,2013-02-17 19:53:00,
2013-02-17 13:58:00,30.7,22.4,29.93,North,0,0.0,0.0,71,0.00,,OVC,0.00,WeatherDisplay:10.37,2013-02-17 19:58:00,
2013-02-17 14:03:00,30.7,22.1,29.92,North,0,0.0,0.0,70,0.00,,OVC,0.00,WeatherDisplay:10.37,2013-02-17 20:03:00,
2013-02-17 14:08:00,30.7,22.1,29.92,North,0,0.0,0.0,70,0.00,,OVC,0.00,WeatherDisplay:10.37,2013-02-17 20:08:00,
2013-02-17 14:13:00,30.9,22.6,29.92,North,0,0.0,0.0,71,0.00,,OVC,0.00,WeatherDisplay:10.37,2013-02-17 20:13:00,
2013-02-17 14:18:00,31.3,22.6,29.92,North,0,0.0,0.0,70,0.00,,OVC,0.00,WeatherDisplay:10.37,2013-02-17 20:18:00,
2013-02-17 14:23:00,31.3,23.0,29.91,North,0,0.0,0.0,71,0.00,,OVC,0.00,WeatherDisplay:10.37,2013-02-17 20:23:00,
2013-02-17 14:28:00,31.3,23.0,29.91,North,0,0.0,0.0,71,0.00,,OVC,0.00,WeatherDisplay:10.37,2013-02-17 20:28:00,
2013-02-17 14:33:00,31.6,23.0,29.91,North,0,0.0,0.0,70,0.00,,OVC,0.00,WeatherDisplay:10.37,2013-02-17 20:33:00,
2013-02-17 14:38:00,31.5,22.8,29.91,North,0,0.0,0.0,70,0.00,,OVC,0.00,WeatherDisplay:10.37,2013-02-17 20:38:00,
2013-02-17 14:43:00,31.6,23.0,29.91,North,0,0.0,0.0,70,0.00,,OVC,0.00,WeatherDisplay:10.37,2013-02-17 20:43:00,
2013-02-17 14:49:00,31.6,23.0,29.90,North,0,0.0,0.0,70,0.00,,OVC,0.00,WeatherDisplay:10.37,2013-02-17 20:49:00,
2013-02-17 14:54:00,31.8,23.1,29.90,North,0,0.0,0.0,70,0.00,,OVC,0.00,WeatherDisplay:10.37,2013-02-17 20:54:00,
2013-02-17 14:59:00,31.6,23.3,29.90,North,0,0.0,0.0,71,0.00,,OVC,0.00,WeatherDisplay:10.37,2013-02-17 20:59:00,
2013-02-17 15:04:00,31.8,23.1,29.89,North,0,0.0,0.0,70,0.00,,OVC,0.00,WeatherDisplay:10.37,2013-02-17 21:04:00,
2013-02-17 15:09:00,32.0,23.3,29.89,North,0,0.0,0.0,70,0.00,,OVC,0.00,WeatherDisplay:10.37,2013-02-17 21:09:00,
2013-02-17 15:14:00,32.0,23.3,29.88,North,0,0.0,0.0,70,0.00,,OVC,0.00,WeatherDisplay:10.37,2013-02-17 21:14:00,
2013-02-17 15:19:00,32.0,23.3,29.88,North,0,0.0,0.0,70,0.00,,OVC,0.00,WeatherDisplay:10.37,2013-02-17 21:19:00,
2013-02-17 15:24:00,32.2,23.5,29.88,North,0,0.0,0.0,70,0.00,,OVC,0.00,WeatherDisplay:10.37,2013-02-17 21:24:00,
2013-02-17 15:29:00,32.2,23.5,29.87,North,0,0.0,0.0,70,0.00,,OVC,0.00,WeatherDisplay:10.37,2013-02-17 21:29:00,
2013-02-17 15:34:00,32.2,23.5,29.87,North,0,0.0,0.0,70,0.00,,OVC,0.00,WeatherDisplay:10.37,2013-02-17 21:34:00,
2013-02-17 15:39:00,32.2,23.5,29.87,North,0,0.0,0.0,70,0.00,,OVC,0.00,WeatherDisplay:10.37,2013-02-17 21:39:00,
2013-02-17 15:44:00,32.0,23.3,29.87,North,0,0.0,0.0,70,0.00,,OVC,0.00,WeatherDisplay:10.37,2013-02-17 21:44:00,
2013-02-17 15:49:00,32.0,23.3,29.86,North,0,0.0,0.0,70,0.00,,OVC,0.00,WeatherDisplay:10.37,2013-02-17 21:49:00,
2013-02-17 15:54:00,32.2,23.5,29.86,North,0,0.0,0.0,70,0.00,,OVC,0.00,WeatherDisplay:10.37,2013-02-17 21:54:00,
2013-02-17 15:59:00,32.4,23.7,29.86,North,0,0.0,0.0,70,0.00,,OVC,0.00,WeatherDisplay:10.37,2013-02-17 21:59:00,
2013-02-17 16:04:00,32.4,23.7,29.86,North,0,0.0,0.0,70,0.00,,OVC,0.00,WeatherDisplay:10.37,2013-02-17 22:04:00,
2013-02-17 16:09:00,32.2,23.5,29.86,North,0,0.0,0.0,70,0.00,,OVC,0.00,WeatherDisplay:10.37,2013-02-17 22:09:00,
2013-02-17 16:14:00,32.4,23.7,29.86,North,0,0.0,0.0,70,0.00,,OVC,0.00,WeatherDisplay:10.37,2013-02-17 22:14:00,
2013-02-17 16:19:00,32.2,23.5,29.86,North,0,0.0,0.0,70,0.00,,OVC,0.00,WeatherDisplay:10.37,2013-02-17 22:19:00,
2013-02-17 16:24:00,32.2,23.1,29.86,North,0,0.0,0.0,69,0.00,,OVC,0.00,WeatherDisplay:10.37,2013-02-17 22:24:00,
2013-02-17 16:29:00,32.2,23.5,29.86,North,0,0.0,0.0,70,0.00,,OVC,0.00,WeatherDisplay:10.37,2013-02-17 22:29:00,
2013-02-17 16:34:00,32.2,23.1,29.86,North,0,0.0,0.0,69,0.00,,OVC,0.00,WeatherDisplay:10.37,2013-02-17 22:34:00,
2013-02-17 16:39:00,32.2,23.1,29.85,North,0,0.0,0.0,69,0.00,,OVC,0.00,WeatherDisplay:10.37,2013-02-17 22:39:00,
2013-02-17 16:44:00,32.0,23.3,29.86,North,0,0.0,0.0,70,0.00,,OVC,0.00,WeatherDisplay:10.37,2013-02-17 22:44:00,
2013-02-17 16:49:00,32.0,23.3,29.85,North,0,0.0,0.0,70,0.00,,OVC,0.00,WeatherDisplay:10.37,2013-02-17 22:49:00,
2013-02-17 16:54:00,32.2,23.1,29.85,North,0,0.0,0.0,69,0.00,,OVC,0.00,WeatherDisplay:10.37,2013-02-17 22:54:00,
2013-02-17 16:59:00,32.2,23.1,29.85,North,0,0.0,0.0,69,0.00,,OVC,0.00,WeatherDisplay:10.37,2013-02-17 22:59:00,
2013-02-17 17:04:00,32.2,23.1,29.85,North,0,0.0,0.0,69,0.00,,OVC,0.00,WeatherDisplay:10.37,2013-02-17 23:04:00,
2013-02-17 17:09:00,32.0,23.3,29.85,North,0,0.0,0.0,70,0.00,,OVC,0.00,WeatherDisplay:10.37,2013-02-17 23:09:00,
2013-02-17 17:14:00,32.0,23.0,29.85,North,0,0.0,0.0,69,0.00,,OVC,0.00,WeatherDisplay:10.37,2013-02-17 23:14:00,
2013-02-17 17:19:00,32.0,23.3,29.84,North,0,0.0,0.0,70,0.00,,OVC,0.00,WeatherDisplay:10.37,2013-02-17 23:19:00,
2013-02-17 17:24:00,32.0,23.0,29.84,North,0,0.0,0.0,69,0.00,,OVC,0.00,WeatherDisplay:10.37,2013-02-17 23:24:00,
2013-02-17 17:29:00,31.8,22.8,29.84,North,0,0.0,0.0,69,0.00,,OVC,0.00,WeatherDisplay:10.37,2013-02-17 23:29:00,
2013-02-17 17:34:00,31.6,22.6,29.83,North,0,0.0,0.0,69,0.00,,OVC,0.00,WeatherDisplay:10.37,2013-02-17 23:34:00,
2013-02-17 17:39:00,31.6,22.6,29.83,North,0,0.0,0.0,69,0.00,,OVC,0.00,WeatherDisplay:10.37,2013-02-17 23:39:00,
2013-02-17 17:44:00,31.5,22.1,29.83,North,0,0.0,0.0,68,0.00,,OVC,0.00,WeatherDisplay:10.37,2013-02-17 23:44:00,
2013-02-17 17:49:00,31.3,22.3,29.83,North,0,0.0,0.0,69,0.00,,OVC,0.00,WeatherDisplay:10.37,2013-02-17 23:49:00,
2013-02-17 17:54:00,31.3,21.9,29.83,North,0,0.0,0.0,68,0.00,,OVC,0.00,WeatherDisplay:10.37,2013-02-17 23:54:00,
2013-02-17 17:59:00,31.3,21.9,29.83,North,0,0.0,0.0,68,0.00,,OVC,0.00,WeatherDisplay:10.37,2013-02-17 23:59:00,
2013-02-17 18:04:00,31.1,21.8,29.82,North,0,0.0,0.0,68,0.00,,OVC,0.00,WeatherDisplay:10.37,2013-02-18 00:04:00,
2013-02-17 18:09:00,31.1,21.8,29.82,North,0,0.0,0.0,68,0.00,,OVC,0.00,WeatherDisplay:10.37,2013-02-18 00:09:00,
2013-02-17 18:14:00,31.1,21.8,29.83,North,0,0.0,0.0,68,0.00,,OVC,0.00,WeatherDisplay:10.37,2013-02-18 00:14:00,
2013-02-17 18:19:00,31.1,22.1,29.83,North,0,0.0,0.0,69,0.00,,OVC,0.00,WeatherDisplay:10.37,2013-02-18 00:19:00,
2013-02-17 18:24:00,31.1,22.1,29.83,North,0,0.0,0.0,69,0.00,,OVC,0.00,WeatherDisplay:10.37,2013-02-18 00:24:00,
2013-02-17 18:29:00,31.1,22.1,29.83,North,0,0.0,0.0,69,0.00,,OVC,0.00,WeatherDisplay:10.37,2013-02-18 00:29:00,
2013-02-17 18:34:00,31.1,22.1,29.82,North,0,0.0,0.0,69,0.00,,OVC,0.00,WeatherDisplay:10.37,2013-02-18 00:34:00,
2013-02-17 18:39:00,30.9,21.9,29.82,North,0,0.0,0.0,69,0.00,,OVC,0.00,WeatherDisplay:10.37,2013-02-18 00:39:00,
2013-02-17 18:44:00,30.9,21.9,29.82,North,0,0.0,0.0,69,0.00,,OVC,0.00,WeatherDisplay:10.37,2013-02-18 00:44:00,
2013-02-17 18:49:00,30.9,21.9,29.82,North,0,0.0,0.0,69,0.00,,OVC,0.00,WeatherDisplay:10.37,2013-02-18 00:49:00,
2013-02-17 18:54:00,30.9,21.9,29.81,North,0,0.0,0.0,69,0.00,,OVC,0.00,WeatherDisplay:10.37,2013-02-18 00:54:00,
2013-02-17 18:59:00,30.9,21.9,29.81,North,0,0.0,0.0,69,0.00,,OVC,0.00,WeatherDisplay:10.37,2013-02-18 00:59:00,
2013-02-17 19:04:00,30.7,22.1,29.81,North,0,0.0,0.0,70,0.00,,OVC,0.00,WeatherDisplay:10.37,2013-02-18 01:04:00,
2013-02-17 19:09:00,30.7,22.1,29.81,North,0,0.0,0.0,70,0.00,,OVC,0.00,WeatherDisplay:10.37,2013-02-18 01:09:00,
2013-02-17 19:14:00,30.7,21.8,29.81,North,0,0.0,0.0,69,0.00,,OVC,0.00,WeatherDisplay:10.37,2013-02-18 01:14:00,
2013-02-17 19:19:00,30.7,21.8,29.80,North,0,0.0,0.0,69,0.00,,OVC,0.00,WeatherDisplay:10.37,2013-02-18 01:19:00,
2013-02-17 19:25:00,30.6,21.6,29.81,North,0,0.0,0.0,69,0.00,,OVC,0.00,WeatherDisplay:10.37,2013-02-18 01:25:00,
2013-02-17 19:30:00,30.6,21.6,29.80,North,0,0.0,0.0,69,0.00,,OVC,0.00,WeatherDisplay:10.37,2013-02-18 01:30:00,
2013-02-17 19:35:00,30.6,21.6,29.81,North,0,0.0,0.0,69,0.00,,OVC,0.00,WeatherDisplay:10.37,2013-02-18 01:35:00,
2013-02-17 19:40:00,30.6,21.9,29.80,North,0,0.0,0.0,70,0.00,,OVC,0.00,WeatherDisplay:10.37,2013-02-18 01:40:00,
2013-02-17 19:45:00,30.6,21.6,29.81,North,0,0.0,0.0,69,0.00,,OVC,0.00,WeatherDisplay:10.37,2013-02-18 01:45:00,
2013-02-17 19:50:00,30.6,21.6,29.81,North,0,0.0,0.0,69,0.00,,OVC,0.00,WeatherDisplay:10.37,2013-02-18 01:50:00,
2013-02-17 19:55:00,30.4,21.4,29.80,North,0,0.0,0.0,69,0.00,,OVC,0.00,WeatherDisplay:10.37,2013-02-18 01:55:00,
2013-02-17 20:00:00,30.4,21.4,29.80,North,0,0.0,0.0,69,0.00,,OVC,0.00,WeatherDisplay:10.37,2013-02-18 02:00:00,
2013-02-17 20:05:00,30.6,21.6,29.80,North,0,0.0,0.0,69,0.00,,OVC,0.00,WeatherDisplay:10.37,2013-02-18 02:05:00,
2013-02-17 20:10:00,30.4,21.4,29.79,North,0,0.0,0.0,69,0.00,,OVC,0.00,WeatherDisplay:10.37,2013-02-18 02:10:00,
2013-02-17 20:15:00,30.2,21.2,29.78,North,0,0.0,0.0,69,0.00,,OVC,0.00,WeatherDisplay:10.37,2013-02-18 02:15:00,
2013-02-17 20:20:00,30.2,21.2,29.78,North,0,0.0,0.0,69,0.00,,OVC,0.00,WeatherDisplay:10.37,2013-02-18 02:20:00,
2013-02-17 20:25:00,30.2,21.2,29.78,North,0,0.0,0.0,69,0.00,,OVC,0.00,WeatherDisplay:10.37,2013-02-18 02:25:00,
2013-02-17 20:30:00,30.2,21.2,29.78,North,0,0.0,0.0,69,0.00,,OVC,0.00,WeatherDisplay:10.37,2013-02-18 02:30:00,
2013-02-17 20:35:00,30.0,21.1,29.78,North,0,0.0,0.0,69,0.00,,OVC,0.00,WeatherDisplay:10.37,2013-02-18 02:35:00,
2013-02-17 20:40:00,30.0,21.1,29.78,North,0,0.0,0.0,69,0.00,,OVC,0.00,WeatherDisplay:10.37,2013-02-18 02:40:00,
2013-02-17 20:45:00,30.0,20.7,29.77,North,0,0.0,0.0,68,0.00,,OVC,0.00,WeatherDisplay:10.37,2013-02-18 02:45:00,
2013-02-17 20:50:00,30.0,21.1,29.77,North,0,0.0,0.0,69,0.00,,OVC,0.00,WeatherDisplay:10.37,2013-02-18 02:50:00,
2013-02-17 20:55:00,29.8,20.9,29.77,North,0,0.0,0.0,69,0.00,,OVC,0.00,WeatherDisplay:10.37,2013-02-18 02:55:00,
2013-02-17 21:00:00,30.0,20.7,29.77,North,0,0.0,0.0,68,0.00,,OVC,0.00,WeatherDisplay:10.37,2013-02-18 03:00:00,
2013-02-17 21:05:00,30.0,21.1,29.76,North,0,0.0,0.0,69,0.00,,OVC,0.00,WeatherDisplay:10.37,2013-02-18 03:05:00,
2013-02-17 21:10:00,30.0,21.1,29.76,North,0,0.0,0.0,69,0.00,,OVC,0.00,WeatherDisplay:10.37,2013-02-18 03:10:00,
2013-02-17 21:15:00,30.0,21.1,29.76,North,0,0.0,0.0,69,0.00,,OVC,0.00,WeatherDisplay:10.37,2013-02-18 03:15:00,
2013-02-17 21:20:00,30.0,21.1,29.75,North,0,0.0,0.0,69,0.00,,OVC,0.00,WeatherDisplay:10.37,2013-02-18 03:20:00,
2013-02-17 21:25:00,30.0,21.1,29.75,North,0,0.0,0.0,69,0.00,,OVC,0.00,WeatherDisplay:10.37,2013-02-18 03:25:00,
2013-02-17 21:30:00,30.2,21.2,29.75,North,0,0.0,0.0,69,0.00,,OVC,0.00,WeatherDisplay:10.37,2013-02-18 03:30:00,
2013-02-17 21:35:00,30.2,21.6,29.75,North,0,0.0,0.0,70,0.00,,OVC,0.00,WeatherDisplay:10.37,2013-02-18 03:35:00,
2013-02-17 21:40:00,30.2,21.6,29.75,North,0,0.0,0.0,70,0.00,,OVC,0.00,WeatherDisplay:10.37,2013-02-18 03:40:00,
2013-02-17 21:45:00,30.4,21.8,29.75,North,0,0.0,0.0,70,0.00,,OVC,0.00,WeatherDisplay:10.37,2013-02-18 03:45:00,
2013-02-17 21:50:00,30.6,21.9,29.74,North,0,0.0,0.0,70,0.00,,OVC,0.00,WeatherDisplay:10.37,2013-02-18 03:50:00,
2013-02-17 21:55:00,30.6,21.9,29.74,North,0,0.0,0.0,70,0.00,,OVC,0.00,WeatherDisplay:10.37,2013-02-18 03:55:00,
2013-02-17 22:00:00,30.6,21.9,29.74,North,0,0.0,0.0,70,0.00,,OVC,0.00,WeatherDisplay:10.37,2013-02-18 04:00:00,
2013-02-17 22:05:00,30.6,21.9,29.74,North,0,0.0,0.0,70,0.00,,OVC,0.00,WeatherDisplay:10.37,2013-02-18 04:05:00,
2013-02-17 22:10:00,30.6,21.9,29.74,North,0,0.0,0.0,70,0.00,,OVC,0.00,WeatherDisplay:10.37,2013-02-18 04:10:00,
2013-02-17 22:15:00,30.6,21.9,29.74,North,0,0.0,0.0,70,0.00,,OVC,0.00,WeatherDisplay:10.37,2013-02-18 04:15:00,
2013-02-17 22:20:00,30.6,21.9,29.74,North,0,0.0,0.0,70,0.00,,OVC,0.00,WeatherDisplay:10.37,2013-02-18 04:20:00,
2013-02-17 22:25:00,30.7,22.1,29.73,North,0,0.0,0.0,70,0.00,,OVC,0.00,WeatherDisplay:10.37,2013-02-18 04:25:00,
2013-02-17 22:30:00,30.7,22.1,29.73,North,0,0.0,0.0,70,0.00,,OVC,0.00,WeatherDisplay:10.37,2013-02-18 04:30:00,
2013-02-17 22:35:00,30.6,21.9,29.73,North,0,0.0,0.0,70,0.00,,OVC,0.00,WeatherDisplay:10.37,2013-02-18 04:35:00,
2013-02-17 22:40:00,30.7,22.1,29.73,North,0,0.0,0.0,70,0.00,,OVC,0.00,WeatherDisplay:10.37,2013-02-18 04:40:00,
2013-02-17 22:45:00,30.7,22.1,29.73,North,0,0.0,0.0,70,0.00,,OVC,0.00,WeatherDisplay:10.37,2013-02-18 04:45:00,
2013-02-17 22:50:00,30.6,21.9,29.73,North,0,0.0,0.0,70,0.00,,OVC,0.00,WeatherDisplay:10.37,2013-02-18 04:50:00,
2013-02-17 22:55:00,30.6,21.9,29.73,North,0,0.0,0.0,70,0.00,,OVC,0.00,WeatherDisplay:10.37,2013-02-18 04:55:00,
2013-02-17 23:00:00,30.6,21.9,29.73,North,0,0.0,0.0,70,0.00,,OVC,0.00,WeatherDisplay:10.37,2013-02-18 05:00:00,
2013-02-17 23:05:00,30.6,21.9,29.73,North,0,0.0,0.0,70,0.00,,OVC,0.00,WeatherDisplay:10.37,2013-02-18 05:05:00,
2013-02-17 23:10:00,30.6,21.9,29.73,North,0,0.0,0.0,70,0.00,,OVC,0.00,WeatherDisplay:10.37,2013-02-18 05:10:00,
2013-02-17 23:15:00,30.6,21.9,29.72,North,0,0.0,0.0,70,0.00,,OVC,0.00,WeatherDisplay:10.37,2013-02-18 05:15:00,
2013-02-17 23:20:00,30.6,21.6,29.72,North,0,0.0,0.0,69,0.00,,OVC,0.00,WeatherDisplay:10.37,2013-02-18 05:20:00,
2013-02-17 23:25:00,30.6,21.6,29.72,North,0,0.0,0.0,69,0.00,,OVC,0.00,WeatherDisplay:10.37,2013-02-18 05:25:00,
2013-02-17 23:30:00,30.6,21.6,29.72,North,0,0.0,0.0,69,0.00,,OVC,0.00,WeatherDisplay:10.37,2013-02-18 05:30:00,
2013-02-17 23:35:00,30.6,21.6,29.72,North,0,0.0,0.0,69,0.00,,OVC,0.00,WeatherDisplay:10.37,2013-02-18 05:35:00,
2013-02-17 23:40:00,30.6,21.6,29.72,North,0,0.0,0.0,69,0.00,,OVC,0.00,WeatherDisplay:10.37,2013-02-18 05:40:00,
2013-02-17 23:45:00,30.6,21.6,29.71,North,0,0.0,0.0,69,0.00,,OVC,0.00,WeatherDisplay:10.37,2013-02-18 05:45:00,
2013-02-17 23:50:00,30.6,21.6,29.71,North,0,0.0,0.0,69,0.00,,OVC,0.00,WeatherDisplay:10.37,2013-02-18 05:50:00,
2013-02-17 23:55:00,30.6,21.2,29.70,North,0,0.0,0.0,68,0.00,,OVC,0.00,WeatherDisplay:10.37,2013-02-18 05:55:00,